Accueil
METAR-TAF:

METAR-TAF

Aéroports :

Dijon, France

Aéroport de Dijon-Bourgogne

latitude: 47-16N, longitude: 005-05E, altitude: 222 m

Observation

Le bulletin a été fait il y a 31 minutes, à 22:00 UTC
Vent 4 kt de nord-ouest
Température 4°C
Humidité 75%
Pression 1015 hPa
Visibilité 10 km ou plus
Quelques nuages à une hauteur de 4300 ft

METAR: LFSD 272200Z AUTO 31004KT 9999 FEW043 04/00 Q1015

Heure: 00:31 (22:31 UTC)


TAF: absent

Observations et prévisions météorologiques de plus de 4000 aéroports (messages METAR et TAF).

Les stations disponibles sont représentées par des disques jaunes et rouges sur la carte.

Passer la souris dessus pour voir le nom de la station.

Cliquer dessus pour voir les observations et prévisions météorologiques.

Pour changer de carte: cliquez sur les boutons verts avec une croix noire pour zoomer, sur le bouton vert avec un tiret pour effectuer un zoom arrière, ou sur les flèches vertes pour les cartes adjacentes.


METAR-TAF: